Home   Weather   Canberra   Past weeks

Flag for Australia Past Weather in Canberra, Australian Capital Territory, Australia — Yesterday and Last 2 Weeks

Now
43 °F

Light rain. Mostly cloudy.


Feels Like: 34 °F
Forecast: 42 / 46 °F
Wind: 18 mph from North

Location: Canberra Airport

Current Time: Sep 30, 2016 at 3:12:24 AM

Latest Report: Sep 30, 2016 at 2:00 AM


Visibility: N/A

Pressure: 29.42 "Hg (27.41 "Hg at 577m altitude)

Humidity: 93%

Dew Point: 41 °F

Location of CanberraLocation

Past Weather in Canberra — Graph

°F

Canberra Temperature Yesterday

Maximum temperature yesterday: 55 °F (at 12:00 PM)
Minimum temperature yesterday: 41 °F (at 9:30 PM)
Average temperature yesterday: 48 °F

High & Low Weather Summary for the Past Weeks

 TemperatureHumidityPressure
High64 °F (Sep 23, 2:00 PM)100% (Sep 17, 5:00 AM)30.18 "Hg (Sep 17, 5:00 AM)
Low32 °F (Sep 28, 2:30 AM)36% (Sep 28, 2:00 PM)29.36 "Hg (Sep 29, 1:00 PM)
Average50 °F76%29.86 "Hg
* Reported Sep 15 2:00 AM — Sep 30 2:00 AM, Canberra, Weather by CustomWeather, © 2016

Note: Actual official high and low records may vary slightly from our data, if they occured in-between our weather recording intervals... More about our weather records

Advertising

Canberra Weather History for the Previous 24 Hours

Scroll right to see more
 ConditionsComfort  
Time TempWeatherWind HumidityBarometerVisibility
2:00 AM
Fri, Sep 30
43 °FLight rain. Mostly cloudy.18 mph93%29.42 "HgN/A
1:00 AM45 °FLight rain. Mostly cloudy.18 mph81%29.45 "HgN/A
12:00 AM45 °FPassing clouds.13 mph81%29.45 "HgN/A
11:30 PM
Thu, Sep 29
43 °FPassing clouds.13 mph87%29.45 "HgN/A
11:00 PM41 °FPassing clouds.12 mph93%29.45 "HgN/A
10:30 PM43 °FSprinkles. Partly cloudy.10 mph87%29.45 "HgN/A
10:00 PM41 °FRain showers. Passing clouds.7 mph93%29.47 "HgN/A
9:30 PM41 °FPartly cloudy.6 mph87%29.47 "HgN/A
9:00 PM43 °FSprinkles. Mostly cloudy.10 mph87%29.47 "HgN/A
8:00 PM45 °FSprinkles. Passing clouds.8 mph81%29.45 "HgN/A
7:30 PM45 °FSprinkles. Passing clouds.10 mph81%29.42 "HgN/A
7:00 PM46 °FPassing clouds.9 mph76%29.42 "HgN/A
6:30 PM45 °FScattered showers. Passing clouds.13 mph81%29.42 "HgN/A
6:00 PM46 °FSprinkles. Scattered clouds.23 mph76%29.42 "Hg6 mi
5:56 PM48 °FRain showers. Scattered clouds.24 mph71%29.42 "Hg6 mi
5:00 PM54 °FPassing clouds.20 mph47%29.39 "HgN/A
4:30 PM54 °FScattered showers. Scattered clouds.24 mph44%29.39 "HgN/A
4:00 PM55 °FScattered clouds.21 mph47%29.36 "HgN/A
3:30 PM54 °FScattered showers. Partly sunny.22 mph54%29.36 "HgN/A
3:00 PM55 °FScattered showers. Scattered clouds.24 mph47%29.36 "HgN/A
2:30 PM55 °FPartly sunny.24 mph59%29.36 "HgN/A
2:02 PM54 °FSprinkles. Scattered clouds.25 mph67%29.36 "HgN/A
1:00 PM54 °FScattered clouds.17 mph67%29.36 "HgN/A
12:00 PM55 °FScattered clouds.16 mph77%29.39 "HgN/A
11:30 AM54 °FBroken clouds.13 mph82%29.39 "HgN/A
11:00 AM52 °FLight rain. Broken clouds.21 mph88%29.42 "HgN/A
10:00 AM52 °FLight rain. Broken clouds.21 mph94%29.42 "Hg5 mi
9:30 AM52 °FRain. Partly sunny.20 mph94%29.39 "Hg3 mi
9:00 AM52 °FLight rain. Partly sunny.17 mph88%29.39 "HgN/A
8:00 AM50 °FLight rain. Partly sunny.16 mph94%29.42 "HgN/A
7:00 AM48 °FRain. Broken clouds.6 mph94%29.47 "Hg4 mi
6:56 AM48 °FRain. Broken clouds.7 mph94%29.47 "Hg4 mi
6:30 AM48 °FRain. Broken clouds.3 mph100%29.50 "Hg4 mi
6:00 AM46 °FRain. Broken clouds.6 mph100%29.50 "Hg4 mi
5:00 AM46 °FRain. Partly cloudy.3 mph93%29.56 "Hg5 mi
4:30 AM46 °FRain. Mostly cloudy.6 mph93%29.56 "Hg5 mi
4:00 AM45 °FSprinkles. Partly cloudy.No wind93%29.59 "HgN/A
3:30 AM46 °FPartly cloudy.5 mph82%29.56 "HgN/A
3:00 AM45 °FPassing clouds.7 mph93%29.59 "HgN/A
Weather by CustomWeather, © 2016

See weather overviewHow to use our weather pages